Regional Weather Roundup
Issued by NWS Cleveland, OH

Home | Current Version | Previous Version | Text Only | Print | Product List | Glossary Off
Versions: 1 2 3 4 5 6 7 8 9 10 11 12 13 14 15 16 17 18 19 20 21 22 23 24 25 26 27 28 29 30 31 32 33 34 35 36 37 38 39 40 41 42 43 44 45 46 47 48 49 50

000
ASUS41 KCLE 040610
RWRCLE
OHIO REGIONAL WEATHER ROUNDUP
NATIONAL WEATHER SERVICE CLEVELAND, OH
100 AM EST WED MAR 04 2015

NOTE: "FAIR" INDICATES FEW OR NO CLOUDS BELOW 12,000 FEET WITH NO
SIGNIFICANT WEATHER AND/OR OBSTRUCTIONS TO VISIBILITY.

OHZ001>008-015>018-024>027-034-035-043-044-040700-
   NORTHWEST OHIO

CITY           SKY/WX    TMP DP  RH WIND       PRES   REMARKS
DEFIANCE       CLOUDY    36  29  75 W7        29.83R
FINDLAY        CLOUDY    35  31  85 W13       29.82S WCI  26
TOLEDO EXPRESS CLOUDY    34  28  79 W13       29.81R WCI  25
TOLEDO EXEC    CLOUDY    35  29  78 W12       29.82R WCI  27
LIMA           CLOUDY    36  31  82 W15       29.83R
$$

OHZ009>014-019>023-028>033-038-089-040700-
   NORTHEAST OHIO

CITY           SKY/WX    TMP DP  RH WIND       PRES   REMARKS
CLE-HOPKINS    DRIZZLE   35  32  88 W14       29.84R FOG     WCI  26
CLE-LAKEFRONT  CLOUDY    35  32  88 W14       29.81R FOG     WCI  26
CUY CO. ARPT   NOT AVBL
LORAIN-ELYRIA  CLOUDY    35  32  88 W9        29.81R WCI  28
ASHTABULA      MIX PCPN  35  33  92 W12       29.79R WCI  27
AKRON-CANTON   CLOUDY    37  33  85 W12       29.80R
WOOSTER        CLOUDY    35  33  92 W12       29.82R WCI  27
MANSFIELD      CLOUDY    35  33  92 W17G23    29.81R WCI  25
YOUNGSTOWN     CLOUDY    38  33  82 W16       29.76R
$$

OHZ042-051>053-060>062-070>072-077>081-040700-
  SOUTHWEST OHIO

CITY           SKY/WX    TMP DP  RH WIND       PRES   REMARKS
CINC-COVINGTON LGT RAIN  39  39 100 W5        29.85R FOG
CINC-LUNKEN    RAIN      40  39  97 CALM      29.87S
HAMILTON       LGT RAIN  38  38 100 NW5       29.87F FOG
DAYTON         LGT RAIN  37  35  92 W9        29.86F FOG
WRIGHT-PAT AFB LGT RAIN  37  36  97 W9        29.85F
DAYTON GENERAL LGT RAIN  38  37  97 W7        29.84F FOG
WILMINGTON     LGT RAIN  37  35  92 W10       29.84R FOG
$$

OHZ036-037-039>041-045>050-054>059-063>069-073>076-082>088-040700-
  CENTRAL AND SOUTHEAST OHIO

CITY           SKY/WX    TMP DP  RH WIND       PRES   REMARKS
COLUMBUS       LGT RAIN  37  36  93 NW7       29.84S
OSU AIRPORT    LGT RAIN  36  34  92 W7        29.85S
BOLTON FIELD   LGT RAIN N/A N/A N/A W8        29.85S
RICKENBACK AFB CLOUDY    37  36  98 NW8       29.84S
NEWARK         LGT RAIN  38  35  89 W8        29.83S
MARION         CLOUDY    36  32  85 W14G21    29.83F
LANCASTER      LGT RAIN  39  37  92 W9        29.84S FOG
ZANESVILLE     LGT RAIN  39  36  89 W10       29.82R
NEW PHILLY     LGT RAIN  41  36  82 W6        29.82R
$$



USA.gov is the U.S. government's official web portal to all federal, state and local government web resources and services.